{"data":{"norad_id":66948,"intl_designator":"2025-286Z","name":"STARLINK-36116","alt_names":[],"object_type":"PAYLOAD","status":"ACTIVE","operator":null,"country":"US","launch_date":"2025-12-07","launch_site_code":"AFWTR","launch_vehicle":null,"mission":null,"orbit_class":"UNKNOWN","rcs_meters":null,"size_class":null,"mass_kg":null,"dimensions":null,"purposes":["comms"],"wikipedia_slug":null,"has_3d_model":false,"image_url":null,"decayed_at":null,"tle_current":{"epoch":"2026-05-25T04:00:03.998880Z","epoch_age_seconds":50835,"freshness":"FRESH","line1":"1 66948U 25286Z   26145.16671295  .00011983  00000+0  36542-3 0  9995","line2":"2 66948  53.1597   3.1919 0001117  84.1403   5.4135 15.34383086  5866","mean_motion":15.34383086,"eccentricity":0.0001117,"inclination_deg":53.1597,"raan_deg":3.1919,"arg_perigee_deg":84.1403,"mean_anomaly_deg":5.4135,"bstar":0.00036542,"rev_number":586,"period_min":93.848792595463,"perigee_km":461.98938517111,"apogee_km":463.51764011163,"semimajor_km":6840.8905126414,"source":"CELESTRAK","updated_at":"2026-05-25T13:38:21.390798Z"}}}